EPSILON R/B, 41897

Orbit data source: Space-Track

EPSILON R/B, 41897 is space debris in HEO originally from a launch on Tue, 20 Dec 2016 UTC launched from the Kagoshima Space Center University Of Tokyo (KSCUT). Debris objects in space refer to the collection of defunct objects orbiting the Earth. Examples of debris include non-operational satellites, rocket bodies, and fragments generated from explosions, collisions, or faulty payload assembly.

Loading next visibility...
Identifier
41897, 2016-080B
Orbit
HEO
Country
Flag of JPJP / JPN
Related business
Manufacturer
IHI Ogikubo
Mission
Spacecraft
Bus & Motor
KM-V, Unknown motor
Mass
~400 kg wet, ~400 kg dry
Launch date (UTC)
2016-12-20 (9 years ago)
Launch vehicle
Unknown
Launch site
Kagoshima Space Center University Of Tokyo (KSCUT)
Object type
Payload
Rocket body
Debris
Shape & HBR
Cyl, 1.1 m
Radar Cross Section
3.189 m², Large (>1 m²)

Expand to show TLE details & history
Last TLE update: 1 day ago

TLE from 1 day ago
0 EPSILON R/B
1 41897U 16080B   25260.72880879  .00085694 -21241-6  97472-3 0  9999
2 41897  31.2287  92.4507 5214780 330.3229   8.2230  5.40964328112167
Epoch: 2025-09-17T17:29Z
TLE epoch observation values (Epoch: 2025-09-17T17:29:29.079Z)
Latitude
-0.00004°
Longitude
-166.80648°
Altitude
495.431 km
Speed
9.322 km/s
True Right ascension
06h 09m 51s
True Declination
0° 00' 00"
Sunlit
Object was in daylight at epoch
Visualization orbit readout
Latitude
Unknown
Longitude
Unknown
Altitude
Unknown
Speed
Unknown
Apparent Right ascension
Unknown
Apparent Declination
Unknown
Sunlit
N/A
Visualization observer readout
Local Sidereal Time
13:52:15
Azimuth
Unknown
Elevation
Unknown
Doppler factor
Unknown
Orbital elements
Apogee altitude
14,482.129 km
Perigee altitude
182.652 km
Semi-major axis
13,710.527 km
Eccentricity
0.52148
Inclination
31.2287°
RAAN
92.4507°
Arg. of periapsis
330.3229°
True anomaly
29.70338°
Mean anomaly
8.223°
Eccentric anomaly
16.91745°
Mean motion
1.35195 °/min
Orbital period
266.28 mins
BSTAR
0.00097472
Loading maneuver chart data...
Computing Atmospheric mass density...
Loading historical data...
Loading historical data...
Loading historical data...
Loading historical data...
Loading historical data...
Loading historical data...
Loading historical data...
Other satellites on launch #80 in the year 2016 (2016-12-20 UTC)

Documentation

Showing up to 5 results
|